Regional Weather Roundup
Issued by NWS Newport/Morehead, NC

Current Version | Previous Version | Text Only | Print | Product List | Glossary On
Versions: 1 2 3 4 5 6 7 8 9 10 11 12 13 14 15 16 17 18 19 20 21 22 23 24 25 26 27 28 29 30 31 32 33 34 35 36 37 38 39 40 41 42 43 44 45 46 47 48 49 50
000 ASUS42 KMHX 020410 RWRMHX WEATHER ROUNDUP FOR EASTERN NORTH CAROLINA NATIONAL WEATHER SERVICE NEWPORT/MOREHEAD CITY NC 1200 AM EDT TUE SEP 02 2014 NOTE: "FAIR" INDICATES FEW OR NO CLOUDS BELOW 12,000 FEET WITH NO SIGNIFICANT WEATHER AND/OR OBSTRUCTIONS TO VISIBILITY NCZ015>017-031-032-045>047-102-103-020500- NORTH COAST CITY SKY/WX TMP DP RH WIND PRES REMARKS EDENTON MOCLDY 81 76 86 SW7 30.05S ELIZABETH CITY PTCLDY 80 75 84 SW10 30.04R KITTY HAWK MOCLDY 80 75 86 SW7 30.04S MANTEO PTCLDY 79 75 89 SW12 30.05S $$ NCZ045>047-081-094-103-104-020500- CENTRAL COAST CITY SKY/WX TMP DP RH WIND PRES REMARKS FRISCO CLEAR 80 77 90 SW14 30.07S SWANQUARTER N/A 81 N/A N/A SW12G20 30.03S $$ NCZ095-097-098-100-101-020500- SOUTHERN COAST CITY SKY/WX TMP DP RH WIND PRES REMARKS BEAUFORT PTCLDY 82 77 84 SW12 30.08F CEDAR ISLAND N/A 79 N/A N/A S9G15 30.12S JACKSONVILLE PTCLDY 78 74 87 SW3 30.09R NEWPORT NOT AVBL PINEY ISLAND CLEAR 80 78 94 SW6 30.07S WILMINGTON PTCLDY 79 76 90 SW7 30.09S $$ NCZ011>013-027>030-043-044-078>080-089-090>093-098-020500- COASTAL PLAIN CITY SKY/WX TMP DP RH WIND PRES REMARKS AHOSKIE PTCLDY 78 75 90 S5 30.04S CLINTON CLEAR 78 76 94 CALM 30.09R ELIZABETHTOWN PTCLDY 78 76 92 S3 30.09S GOLDSBORO PTCLDY 79 78 98 VRB3 30.06S GREENVILLE CLEAR 79 75 89 SW7 30.08S HAVELOCK PTCLDY 78 75 90 SW6 30.09S KENANSVILLE CLEAR 76 73 93 CALM 30.09S KINSTON PTCLDY 79 74 86 SW8 30.08S NEW BERN PTCLDY 79 75 87 SW5 30.09R RICHLANDS PTCLDY 75 72 88 S5 30.10R ROANOKE RAPIDS NOT AVBL ROCKY MOUNT PTCLDY 80 75 84 S10 30.05S WASHINGTON PTCLDY 78 74 87 SW6 30.07S WHITEVILLE PTCLDY 77 75 91 CALM 30.09S $$ AMZ130-135-150-152-154-156-158-170-250-252-270-ANZ085-086-088-633-658-670-020500- MARINE OBSERVATIONS STATION/POSITION TIME TEMP WIND PRES WAVE SWELL AIR SEA DIR/SP/G HT/PER HT/PER (UTC) (F) (DEG/KT/KT) (MB) (FT/S) (FT/S) CHESAPEAKE LIGHT 0300 81 210/ 15/ 15 1016.8 BUOY 44014 0400 79 77 210/ 14/ 16 1016.5 3/ 9 2/ 9 DUCK 0400 81 75 210/ 14/ 17 1016.3 2E DUCK 0400 N/A 3/11 2/11 OREGON INLET 0400 82 84 210/ 14/ 19 1017.6 BUOY 44095 0400 80 N/A 3/11 2/11 20E OREGON INLET NOT AVBL HATTERAS CG 0400 81 84 220/ 12/ 16 1018.6 DIAMOND BUOY 0400 82 210/ 17/ 19 1018.1 4/11 2/11 CAPE LOOKOUT 0300 81 220/ 8/ 10 1018.6 BEAUFORT LAB 0400 81 84 210/ 7/ 12 1018.2 30 SE NEW RIVER 0400 82 82 230/ 12/ 14 1019.3 3/ 9 2/ 9 5 SE WRIGHTSVILL 0300 79 83 220/ 14/ 16 N/A BUOY 41002 0319 80 84 200/ 12/ 14 1021.1 3/11 3/11 BUOY 41004 0400 83 83 180/ 10/ 12 1018.8 2/ 8 2/ 8 $$

USA.gov is the U.S. government's official web portal to all federal, state and local government web resources and services.